Vorticity
nan nan nan nan nan nan nan nan nan nan nan nan nan nan nan nan nan nan nan nan nan nan nan nan nan nan nan nan nan nan nan nan nan nan nan nan nan nan nan nan nan nan nan
nan 7 8 8 9 7 6 8 9 6 8 11 11 11 10 9 9 7 7 8 9 7 7 8 7 6 8 9 9 8 8 9 10 9 7 12 11 10 11 10 9 9 nan
nan 8 9 9 9 9 7 6 8 9 6 9 12 12 10 9 8 7 8 8 9 9 9 8 8 7 6 8 9 8 8 9 8 11 9 9 10 9 11 11 9 10 nan
nan 9 8 8 8 9 10 8 7 8 9 8 9 9 9 11 10 9 8 7 7 8 9 8 9 8 7 5 8 8 8 8 9 8 10 10 9 9 9 11 7 9 nan
nan 8 8 9 8 8 9 10 9 7 7 8 7 9 10 8 10 11 9 8 7 7 8 9 9 11 10 3 3 6 7 6 5 7 7 8 6 11 10 9 10 9 nan
nan 9 8 9 9 9 9 9 10 8 8 7 8 8 6 10 14 10 5 7 9 8 7 8 10 12 13 11 5 5 4 4 3 5 6 6 5 4 11 11 8 9 nan
nan 9 10 10 10 9 9 9 10 10 9 8 8 8 8 9 14 12 6 4 8 9 8 7 8 10 11 12 12 11 8 7 4 3 6 6 8 7 5 7 8 6 nan
nan 9 10 10 10 10 10 9 8 10 10 10 10 9 8 10 14 13 11 5 6 8 10 9 8 8 9 10 10 12 11 9 9 5 6 8 10 12 10 11 10 4 nan
nan 10 11 10 9 9 9 9 9 9 10 10 10 11 9 11 13 10 8 10 10 10 9 9 9 9 14 12 8 8 9 10 14 11 9 8 11 10 5 7 12 10 nan
nan 10 10 11 10 9 9 9 9 10 9 10 11 11 11 12 14 13 4 6 10 12 12 13 13 11 13 11 7 7 6 11 9 12 13 13 12 15 12 0 3 6 nan
nan 12 11 12 11 10 9 9 10 10 10 10 10 11 13 13 15 16 6 2 8 9 10 12 16 18 11 9 9 4 4 8 11 11 11 12 13 11 10 11 8 7 nan
nan 15 15 13 11 14 13 11 11 11 10 10 10 10 12 16 18 15 13 6 1 6 8 9 12 15 15 10 7 7 9 8 8 10 11 10 11 12 12 12 9 6 nan
nan 12 11 11 12 15 14 11 12 12 10 11 11 10 10 12 17 19 14 12 4 7 9 10 13 14 12 13 14 15 12 9 11 10 9 11 11 13 13 11 12 11 nan
nan 15 12 11 11 11 14 12 11 11 11 11 11 11 11 10 11 13 14 16 15 10 12 14 13 13 14 13 15 16 14 14 14 11 10 10 12 14 13 13 11 12 nan
nan 15 15 14 13 7 9 17 21 17 15 13 13 14 12 14 13 14 16 15 18 14 13 13 14 13 13 13 12 11 11 11 12 11 12 12 9 10 14 13 12 10 nan
nan 13 15 14 13 12 7 2 6 15 24 25 20 15 13 20 18 13 11 13 16 15 11 11 12 12 12 11 12 14 13 11 10 11 10 11 13 11 12 11 12 12 nan
nan 14 16 15 12 12 9 9 2 4 7 10 19 19 17 12 7 10 12 9 11 12 10 10 11 11 11 11 11 12 13 14 15 13 11 11 10 14 12 11 11 13 nan
nan 16 18 17 13 13 13 13 10 10 4 1 6 11 12 9 6 12 12 5 7 10 12 10 10 11 11 11 11 11 11 12 11 11 13 13 12 15 17 13 11 15 nan
nan 13 13 13 14 14 15 14 11 10 10 10 10 9 8 9 7 8 11 10 10 9 9 9 9 9 10 11 11 10 11 12 14 14 14 14 18 18 24 31 18 11 nan
nan 14 12 11 12 13 14 13 12 12 11 9 11 10 11 10 10 11 11 10 9 9 9 10 11 10 10 9 10 11 11 9 12 18 22 19 21 22 20 21 22 18 nan
nan 14 13 12 12 13 12 12 13 11 9 10 10 11 15 13 11 10 10 11 11 11 11 11 11 12 11 12 10 10 11 10 9 12 17 23 21 13 10 7 11 10 nan
nan 13 10 11 12 12 11 11 12 11 11 11 11 10 12 13 11 11 11 12 14 14 14 13 13 12 12 12 11 12 12 12 11 11 12 14 10 11 11 12 14 14 nan
nan 10 10 10 10 9 10 12 12 12 12 11 11 11 9 11 11 11 11 12 12 12 13 14 14 14 14 15 13 13 12 12 12 13 13 11 11 14 13 13 13 11 nan
nan 13 10 11 11 10 10 11 10 11 12 11 11 10 11 11 10 10 11 11 12 12 12 12 11 12 12 13 13 13 14 13 13 13 11 11 12 11 10 12 12 10 nan
nan 11 11 11 10 11 10 11 11 10 11 11 11 11 11 10 10 11 12 13 12 11 11 12 10 10 11 12 13 11 13 14 17 13 12 12 13 10 10 11 11 11 nan
nan nan nan nan nan nan nan nan nan nan nan nan nan nan nan nan nan nan nan nan nan nan nan nan nan nan nan nan nan nan nan nan nan nan nan nan nan nan nan nan nan nan nan
CAPE
951 1203 1038 687 604 1441 936 229 365 735 86 755 1171 1445 1728 1483 1226 1109 1348 1875 1372 1522 1459 994 630 420 263 20 0 0 0 0 0 0 0 0 0 0 0 0 0 0 0
1113 1293 1386 1249 828 628 1462 828 397 536 773 101 1267 1341 1671 1679 1463 1406 1325 1745 1992 1626 1563 1323 1109 769 498 125 0 36 0 0 0 0 0 196 10 0 0 0 0 0 0
1291 1320 1447 1538 1382 990 764 1581 1113 629 856 1032 1420 1449 1639 1640 1709 1729 1572 1575 1618 1825 1726 1460 1387 963 894 521 70 65 133 0 0 0 0 0 18 1 1 0 0 0 0
1601 1598 1458 1648 1776 1598 1138 949 1760 1369 636 1198 1692 1803 1803 1785 1682 1739 1984 1913 1696 1613 1691 1680 1501 1077 1121 727 284 124 61 168 0 26 0 14 39 90 2 3 27 7 3
1804 1824 1771 1601 1821 2015 1758 1361 1269 1619 1816 1015 1593 1837 2000 1952 2014 1905 1739 1829 2027 1904 1589 1906 1832 1418 1116 940 728 411 54 46 41 0 0 0 0 103 142 0 17 27 61
1827 1943 1952 2017 1886 1949 2146 1965 1552 1431 1337 1974 1762 1984 1969 2266 2211 1836 2011 2049 1929 1910 1917 1750 1728 1710 1211 669 467 692 352 172 124 59 97 20 31 0 80 86 50 1 14
1764 1854 2107 2117 2280 2193 2172 2219 2226 1964 1668 1287 1741 2091 2079 2247 2243 1308 1149 2055 2123 2089 2035 2006 2011 1933 1734 1764 380 159 222 162 325 66 21 57 11 3 0 46 81 21 40
1521 1992 2081 2392 2358 2397 2237 2198 2191 2310 2381 2144 1690 1809 2182 2143 2125 953 562 1853 2164 2150 2199 2191 2182 2213 1981 2041 2176 1369 634 618 227 122 217 55 23 9 1 8 41 49 2
1337 1448 2209 2347 2597 2463 2437 2292 2332 2376 2393 2570 2570 2363 2014 2140 1967 906 195 1514 2095 2395 2383 2304 2407 2441 2366 1374 2027 2273 1969 1402 968 204 270 232 5 1 0 0 28 8 7
1575 1654 1661 2324 2515 2624 2528 2546 2505 2522 2659 2625 2666 2805 2771 2661 2337 857 105 1953 2167 2308 2533 2606 2057 2221 2618 1548 1351 2152 2288 2325 1871 1494 377 26 3 0 0 49 78 40 34
1967 1765 1808 1811 2387 2553 2671 2653 2680 2762 2666 2709 2798 2806 2899 2836 2943 1034 41 2115 2582 2604 2597 2655 2670 2173 782 1067 464 2400 2451 2500 2295 1725 1461 1020 526 233 10 130 184 86 45
1855 2215 2208 2293 2242 2507 2538 2658 2722 2709 2910 2949 2871 2954 3001 2961 2872 1529 132 268 2641 2887 3030 2948 2840 2629 1697 394 0 618 1251 885 2143 2480 1826 1535 1241 533 216 170 194 79 74
2228 2275 2416 2498 2622 2656 2665 2652 2801 2893 2975 3122 3193 3226 3291 3296 3149 2599 658 0 38 1633 3073 3228 3164 2762 1650 21 0 10 0 747 1839 2308 2475 2103 1440 1188 416 216 217 126 66
1513 2877 2229 2415 2509 2378 2962 3023 3120 3279 3345 3350 3444 3498 3515 3441 3272 3114 752 12 1 1 281 1365 1668 1726 1399 1260 632 58 0 365 1199 1841 2192 2435 2214 1287 372 75 71 50 27
2208 2446 3127 2836 2472 2540 1445 1617 3189 3531 3650 3728 3690 3759 3751 3664 2944 1750 2040 1872 776 312 582 728 1099 1604 2172 2223 2203 1565 1142 83 157 755 1527 1968 2245 1795 294 22 0 1 12
1722 2208 3272 3294 2993 2896 442 1 1 0 28 1175 1967 2654 0 244 2 1 0 0 1 1 1 561 918 1110 1476 1870 2299 2479 2434 1490 956 742 1033 1335 1603 1906 400 1 1 0 0
976 703 1518 3195 3276 3392 2803 438 1 0 0 0 0 0 0 0 0 0 0 0 1 0 70 195 468 639 928 1244 1551 1845 2057 2244 2036 1051 1207 1233 1309 1393 574 23 0 1 0
740 585 807 1920 2312 2940 2836 474 0 0 0 0 0 0 0 0 0 0 2 0 0 0 0 0 0 0 0 1 1 2 2 3 8 196 685 811 960 940 773 120 1 1 0
704 612 423 284 260 456 604 562 391 111 0 0 0 0 0 1 1 1 0 0 0 0 0 0 0 0 0 0 1 0 0 1 1 2 4 27 247 327 291 220 16 0 0
38 334 303 197 98 33 48 8 0 0 0 0 0 0 0 0 0 0 0 0 0 0 0 0 0 0 0 1 1 4 5 3 1 2 3 4 21 0 1 1 0 0 0
19 0 0 0 0 0 0 0 0 0 0 0 0 0 0 0 0 0 0 0 0 0 0 0 0 1 1 1 1 1 0 1 1 2 1 1 1 1 0 0 1 1 1
0 0 0 0 0 0 0 0 0 0 0 0 0 0 0 1 1 1 1 1 1 0 0 0 0 1 1 2 1 1 1 0 0 0 0 0 0 0 0 1 1 1 0
0 0 0 0 0 0 0 0 0 0 0 0 0 0 0 1 2 2 1 0 2 3 3 3 2 1 0 0 0 0 0 0 0 0 0 0 0 1 0 0 0 0 0
0 0 0 0 0 0 0 0 1 0 1 2 1 1 1 2 1 2 1 1 0 0 1 2 0 0 0 0 0 0 0 0 0 0 0 0 0 0 0 0 0 0 0
0 0 0 0 0 0 0 1 1 2 2 2 1 1 1 1 1 2 0 0 0 0 0 0 0 0 0 0 0 0 0 0 0 0 0 0 0 0 0 0 0 0 0
0 0 0 0 0 0 0 1 1 1 1 1 2 1 1 1 1 1 1 0 1 1 1 1 1 0 0 0 0 0 0 0 0 0 0 0 0 0 0 0 0 0 0